Location: Larkspur
(54.4391°N, 113.7691°W)
Time: 18:18:33
(UTC+00:00)

LilacSat-2 - Pass Details

Date: 14 December 2023
Orbit: 485 x 504 km, 97.5° (Epoch: 21 February)

Event Time Altitude Azimuth Distance (km) Brightness Sun altitude
Rises 00:45:22 0° 166° (SSE) 2,588 ? -12.6°
Reaches altitude 10° 00:47:26 10° 168° (SSE) 1,713 ? -12.9°
Maximum altitude 00:51:08 82° 255° (WSW) 520 ? -13.4°
Drops below altitude 10° 00:54:53 10° 344° (NNW) 1,741 ? -13.9°
Sets 00:57:00 0° 346° (NNW) 2,635 ? -14.2°
